Weather History for Wharton, TX

Change the Weather History Date:

Friday, November 16, 2012

  Actual Average (KPSX) Record (KPSX)
Temperature  
Mean Temperature 55 °F -  
Max Temperature 68 °F 72 °F 87 °F (2011)
Min Temperature 41 °F 52 °F 30 °F (1970)
Degree Days  
Heating Degree Days 10    
Growing Degree Days 5 (Base 50)    
Moisture  
Dew Point 35 °F    
Average Humidity 48    
Maximum Humidity 77    
Minimum Humidity 26    
Precipitation  
Precipitation 0.00 in - - ()
Sea Level Pressure  
Sea Level Pressure 30.31 in    
Wind  
Wind Speed 4 mph (NNE)    
Max Wind Speed 14 mph    
Max Gust Speed 18 mph    
Visibility 10 miles    
Events      
Averages and records for this station are not official NWS values.
T = Trace of Precipitation, MM = Missing Value Source: NWS Daily Summary

Daily Weather History Graph

Daily Weather History Graph

Search for Another Location

Airport:

Trip Planner

Search our weather history database for the weather conditions in past years. The results will help you decide how hot, cold, wet, or windy it might be!

Date:

Astronomy

Nov. 16, 2012 Rise Set
Actual Time 6:49 AM CST 5:29 PM CST
Civil Twilight 6:24 AM CST 5:54 PM CST
Nautical Twilight 5:55 AM CST 6:23 PM CST
Astronomical Twilight 5:27 AM CST 6:51 PM CST
Moon 9:41 AM CST (11/16) 8:32 PM CST (11/16)
Length of Visible Light 11h 29m
Length of Day
10h 39m
Waxing Crescent, 12% of the Moon is Illuminated
Nov 16
Waxing Crescent
Nov 20
First Quarter
Nov 28
Full
Dec 6
Last Quarter
Dec 13
New

Hourly Weather History & Observations

Time (CST) Temp. Windchill Dew Point Humidity Pressure Visibility Wind Dir Wind Speed Gust Speed Precip Events Conditions
12:15 AM 53.6 °F - 46.4 °F 77% 30.29 in 10.0 mi Calm Calm - N/A   Overcast
12:55 AM 53.6 °F - 44.6 °F 72% 30.29 in 10.0 mi Calm Calm - N/A   Overcast
1:15 AM 55.4 °F - 42.8 °F 63% 30.29 in 10.0 mi Calm Calm - N/A   Overcast
1:35 AM 53.6 °F - 42.8 °F 67% 30.29 in 10.0 mi Calm Calm - N/A   Overcast
1:55 AM 55.4 °F - 42.8 °F 63% 30.29 in 10.0 mi NE 3.5 mph - N/A   Overcast
2:15 AM 53.6 °F - 42.8 °F 67% 30.29 in 10.0 mi NE 4.6 mph - N/A   Overcast
2:35 AM 53.6 °F - 42.8 °F 67% 30.28 in 10.0 mi Calm Calm - N/A   Mostly Cloudy
2:55 AM 53.6 °F - 42.8 °F 67% 30.28 in 10.0 mi NE 3.5 mph - N/A   Mostly Cloudy
3:15 AM 53.6 °F - 42.8 °F 67% 30.28 in 10.0 mi NE 6.9 mph - N/A   Overcast
3:35 AM 53.6 °F - 41.0 °F 62% 30.28 in 10.0 mi ENE 3.5 mph - N/A   Overcast
3:55 AM 53.6 °F - 41.0 °F 62% 30.28 in 10.0 mi NE 4.6 mph - N/A   Overcast
4:15 AM 53.6 °F - 39.2 °F 58% 30.29 in 10.0 mi Calm Calm - N/A   Overcast
4:35 AM 53.6 °F - 37.4 °F 54% 30.28 in 10.0 mi NE 4.6 mph - N/A   Overcast
4:55 AM 53.6 °F - 35.6 °F 51% 30.28 in 10.0 mi NE 5.8 mph - N/A   Overcast
5:15 AM 53.6 °F - 33.8 °F 47% 30.29 in 10.0 mi NNE 6.9 mph - N/A   Overcast
5:35 AM 53.6 °F - 33.8 °F 47% 30.29 in 10.0 mi NE 5.8 mph - N/A   Overcast
5:55 AM 51.8 °F - 33.8 °F 50% 30.30 in 10.0 mi NE 5.8 mph - N/A   Mostly Cloudy
6:15 AM 51.8 °F - 33.8 °F 50% 30.29 in 10.0 mi NE 5.8 mph - N/A   Mostly Cloudy
6:35 AM 50.0 °F - 35.6 °F 58% 30.30 in 10.0 mi NNE 5.8 mph - N/A   Scattered Clouds
6:55 AM 48.2 °F - 35.6 °F 62% 30.32 in 10.0 mi NNE 3.5 mph - N/A   Clear
7:15 AM 48.2 °F - 35.6 °F 62% 30.32 in 10.0 mi Calm Calm - N/A   Scattered Clouds
7:35 AM 50.0 °F - 35.6 °F 58% 30.33 in 10.0 mi NNE 3.5 mph - N/A   Scattered Clouds
7:55 AM 51.8 °F - 35.6 °F 54% 30.34 in 10.0 mi NNE 6.9 mph - N/A   Mostly Cloudy
8:15 AM 51.8 °F - 35.6 °F 54% 30.33 in 10.0 mi NE 9.2 mph - N/A   Overcast
8:35 AM 53.6 °F - 37.4 °F 54% 30.34 in 10.0 mi NE 6.9 mph - N/A   Overcast
8:55 AM 53.6 °F - 37.4 °F 54% 30.35 in 10.0 mi NE 8.1 mph - N/A   Scattered Clouds
9:15 AM 55.4 °F - 35.6 °F 47% 30.35 in 10.0 mi NNE 10.4 mph - N/A   Scattered Clouds
9:35 AM 59.0 °F - 35.6 °F 42% 30.35 in 10.0 mi NNE 10.4 mph 16.1 mph N/A   Scattered Clouds
9:55 AM 59.0 °F - 33.8 °F 39% 30.36 in 10.0 mi NE 10.4 mph 17.3 mph N/A   Scattered Clouds
10:15 AM 59.0 °F - 33.8 °F 39% 30.36 in 10.0 mi NNE 11.5 mph - N/A   Clear
10:35 AM 62.6 °F - 33.8 °F 34% 30.36 in 10.0 mi NNE 10.4 mph - N/A   Clear
10:55 AM 62.6 °F - 32.0 °F 32% 30.36 in 10.0 mi NE 8.1 mph - N/A   Clear
11:15 AM 62.6 °F - 32.0 °F 32% 30.35 in 10.0 mi NE 11.5 mph 18.4 mph N/A   Clear
11:35 AM 62.6 °F - 32.0 °F 32% 30.34 in 10.0 mi North 13.8 mph - N/A   Clear
11:55 AM 64.4 °F - 32.0 °F 30% 30.33 in 10.0 mi NNE 12.7 mph 18.4 mph N/A   Clear
12:15 PM 64.4 °F - 32.0 °F 30% 30.32 in 10.0 mi NE 9.2 mph - N/A   Clear
12:35 PM 64.4 °F - 32.0 °F 30% 30.31 in 10.0 mi NE 10.4 mph 17.3 mph N/A   Clear
12:55 PM 66.2 °F - 32.0 °F 28% 30.30 in 10.0 mi NE 9.2 mph 16.1 mph N/A   Clear
1:15 PM 68.0 °F - 32.0 °F 26% 30.29 in 10.0 mi NNE 11.5 mph - N/A   Clear
1:35 PM 66.2 °F - 32.0 °F 28% 30.28 in 10.0 mi NE 10.4 mph 17.3 mph N/A   Clear
1:55 PM 68.0 °F - 32.0 °F 26% 30.28 in 10.0 mi North 12.7 mph - N/A   Clear
2:15 PM 68.0 °F - 32.0 °F 26% 30.27 in 10.0 mi North 11.5 mph - N/A   Clear
2:55 PM 68.0 °F - 32.0 °F 26% 30.26 in 10.0 mi NNE 11.5 mph - N/A   Clear
3:15 PM 68.0 °F - 32.0 °F 26% 30.26 in 10.0 mi NE 6.9 mph 17.3 mph N/A   Clear
3:35 PM 68.0 °F - 32.0 °F 26% 30.27 in 10.0 mi NE 9.2 mph - N/A   Clear
3:55 PM 68.0 °F - 32.0 °F 26% 30.27 in 10.0 mi NNE 5.8 mph - N/A   Clear
4:15 PM 66.2 °F - 32.0 °F 28% 30.27 in 10.0 mi NNE 5.8 mph - N/A   Clear
4:35 PM 64.4 °F - 32.0 °F 30% 30.27 in 10.0 mi NNE 6.9 mph - N/A   Clear
4:55 PM 64.4 °F - 32.0 °F 30% 30.28 in 10.0 mi NNE 6.9 mph - N/A   Clear
5:15 PM 62.6 °F - 32.0 °F 32% 30.28 in 10.0 mi NNE 5.8 mph - N/A   Clear
5:35 PM 59.0 °F - 32.0 °F 36% 30.29 in 10.0 mi NE 3.5 mph - N/A   Clear
5:55 PM 59.0 °F - 32.0 °F 36% 30.29 in 10.0 mi NNE 3.5 mph - N/A   Clear
6:15 PM 55.4 °F - 32.0 °F 41% 30.29 in 10.0 mi North 3.5 mph - N/A   Clear
6:35 PM 53.6 °F - 33.8 °F 47% 30.30 in 10.0 mi North 4.6 mph - N/A   Clear
6:55 PM 53.6 °F - 33.8 °F 47% 30.30 in 10.0 mi North 3.5 mph - N/A   Clear
7:15 PM 51.8 °F - 33.8 °F 50% 30.31 in 10.0 mi North 4.6 mph - N/A   Clear
7:35 PM 50.0 °F - 33.8 °F 54% 30.31 in 10.0 mi NNE 4.6 mph - N/A   Clear
7:55 PM 50.0 °F - 33.8 °F 54% 30.32 in 10.0 mi NNE 4.6 mph - N/A   Clear
8:15 PM 50.0 °F - 33.8 °F 54% 30.32 in 10.0 mi North 3.5 mph - N/A   Clear
8:35 PM 51.8 °F - 32.0 °F 47% 30.33 in 10.0 mi North 3.5 mph - N/A   Clear
8:55 PM 50.0 °F - 32.0 °F 50% 30.33 in 10.0 mi North 3.5 mph - N/A   Clear
9:15 PM 46.4 °F 45.2 °F 33.8 °F 62% 30.33 in 10.0 mi North 3.5 mph - N/A   Clear
9:35 PM 46.4 °F 44.3 °F 33.8 °F 62% 30.34 in 10.0 mi NNE 4.6 mph - N/A   Clear
10:15 PM 46.4 °F - 33.8 °F 62% 30.34 in 10.0 mi Calm Calm - N/A   Clear
10:35 PM 46.4 °F - 32.0 °F 57% 30.35 in 10.0 mi Calm Calm - N/A   Clear
10:55 PM 46.4 °F - 32.0 °F 57% 30.35 in 10.0 mi Calm Calm - N/A   Clear
11:15 PM 44.6 °F - 32.0 °F 61% 30.35 in 10.0 mi Calm Calm - N/A   Clear
11:35 PM 42.8 °F - 33.8 °F 70% 30.35 in 10.0 mi Calm Calm - N/A   Clear
11:55 PM 41.0 °F - 33.8 °F 76% 30.34 in 10.0 mi Calm Calm - N/A   Clear